Lid_Strength_Index
3 4 3 5 9 8 10 8 6 7 7 5 4 5 5 5 7 10 1 1 0 0 -0 -0 -1 -1 -1 -1 -1 -1 -1 -1 -1 -1 -1 -1 -1 -1 -1 -1 -1 -1 -1 -1 -1 -1 -1 -1 -1
4 4 5 7 10 11 10 6 7 6 5 5 4 5 5 6 4 3 2 1 0 0 -0 -0 -0 -1 -1 -1 -1 -1 -1 -1 -1 -1 -1 -1 -1 -1 -1 -1 -1 -1 -1 -1 -1 -1 -1 -1 -1
3 3 7 9 10 11 10 7 6 6 5 5 5 3 5 6 3 3 1 0 0 0 -0 -0 -1 -0 -1 -1 -1 -1 -1 -1 -1 -1 -1 -1 -1 -1 -1 -1 -1 -1 -1 -1 -2 -1 -1 -1 -1
4 5 6 10 11 8 7 6 6 5 5 4 4 6 4 2 3 1 0 0 0 0 -0 -1 -0 -0 -1 -1 -1 -1 -1 -1 -1 -1 -1 -1 -1 -1 -1 -1 -1 -1 -2 -2 -2 -2 -2 -2 -1
5 6 9 9 9 8 6 5 5 6 5 5 4 6 5 2 1 1 1 0 1 0 -0 -0 -0 -0 -1 -1 -1 -1 -1 -1 -1 -1 -1 -1 -1 -1 -1 -1 -1 -1 -2 -2 -2 -2 -2 -2 -2
8 7 10 10 8 7 5 5 5 5 5 5 5 5 4 2 2 1 0 0 0 0 -0 -0 -1 -1 -0 -1 -1 -1 -1 -1 -1 -1 -1 -1 -1 -1 -1 -1 -1 -1 -2 -2 -2 -2 -2 -3 -3
9 9 10 9 9 7 6 4 6 6 6 5 4 6 4 3 1 1 0 0 0 0 0 -0 -0 -1 -1 -0 -0 -0 -1 -1 -1 -1 -1 -1 -1 -1 -1 -1 -1 -1 -1 -2 -2 -2 -2 -3 -3
8 9 10 9 9 9 5 5 4 5 6 3 4 6 6 4 3 1 1 1 0 0 0 0 -0 -0 -0 -1 -1 -1 -1 -1 -1 -1 -1 -1 -1 -1 -1 -1 -1 -1 -2 -2 -2 -2 -2 -2 -2
7 10 11 10 9 8 6 5 4 4 5 5 5 5 4 4 4 3 1 1 1 1 0 0 0 -0 -0 -1 -1 -1 -1 -1 -1 -1 -1 -0 -1 -1 -1 -1 -2 -1 -1 -2 -2 -2 -2 -2 -2
9 11 10 8 7 8 7 6 5 6 6 6 6 5 4 4 4 4 3 2 2 1 1 0 0 0 -0 -0 -0 -1 -1 -1 -1 -1 -1 -1 -1 -1 -1 -1 -2 -1 -1 -2 -2 -2 -2 -2 -1
9 11 9 8 8 7 7 7 6 7 7 5 6 5 5 4 3 4 4 3 3 1 1 0 0 0 -0 -0 -0 -0 -0 -0 -0 -1 -1 -1 -1 -1 -1 -1 -1 -1 -1 -0 -1 -1 -1 -1 -1
7 6 7 8 7 7 8 7 7 6 6 5 5 4 5 5 4 4 3 2 2 2 1 1 0 0 0 -0 0 -0 0 -0 -0 -0 -1 -0 0 0 -0 -0 -0 -0 -0 -0 -1 -0 -1 -0 -1
7 6 5 5 5 5 5 6 6 5 4 4 5 4 4 4 3 3 3 2 1 1 0 1 0 0 0 0 -0 0 0 0 -0 -0 -0 -0 0 0 0 -0 -0 -0 -0 -0 -0 -0 -0 0 -0
5 5 5 5 5 5 6 6 6 5 4 4 4 4 3 3 3 2 1 1 1 1 1 0 0 0 0 0 0 -0 0 -0 -0 -0 -0 -0 -0 0 0 0 0 0 -0 -0 -0 0 0 0 0
5 6 6 6 5 6 5 7 7 5 4 4 4 4 4 3 2 2 1 -2 1 1 0 0 -1 0 0 0 0 0 -0 -0 0 -0 -0 -0 -0 -0 0 0 0 0 -0 -0 -0 0 0 0 0
7 7 9 6 6 6 6 10 6 4 5 5 5 4 4 3 3 1 1 -3 -1 -1 0 0 0 -0 1 1 0 0 0 0 0 -0 -0 -0 -0 -0 0 0 0 -0 -0 -0 0 0 1 1 1
8 10 9 8 5 6 7 9 6 4 5 5 5 4 4 3 2 2 0 -1 -1 -1 -0 -1 0 0 1 0 0 0 0 0 0 -0 -0 -0 -0 -0 0 0 0 -0 0 0 1 1 1 1 1
10 9 8 8 6 6 7 8 6 5 5 5 4 4 4 3 3 2 1 1 0 -0 0 0 -0 0 0 0 0 0 0 0 0 0 0 -0 0 -0 0 0 0 0 1 1 1 1 1 1 1
7 8 9 7 6 7 7 7 6 5 5 5 4 4 4 3 2 2 1 -1 1 1 0 0 0 -1 1 1 2 2 2 1 1 0 0 0 0 0 0 0 0 0 1 1 1 1 2 2 1
7 8 9 7 6 7 7 8 6 5 5 5 4 4 4 3 3 2 1 2 1 1 1 1 1 0 1 1 1 1 1 1 1 0 0 0 0 0 0 0 1 1 1 1 1 1 2 2 1
8 9 9 9 7 6 7 9 7 6 5 4 4 4 3 3 3 2 2 2 1 0 0 1 0 0 0 0 1 1 1 1 1 1 1 1 0 0 0 0 1 1 1 1 1 1 2 3 2
9 7 7 8 9 11 7 12 8 7 6 5 5 4 4 3 3 2 2 1 1 1 0 0 0 0 0 0 1 1 2 3 2 1 1 1 0 0 0 0 0 1 1 1 1 1 1 2 3
8 6 7 8 9 9 9 11 9 7 8 6 5 5 4 3 3 4 3 2 1 1 1 0 -1 -1 0 0 1 2 2 1 1 1 1 1 1 0 0 0 1 1 1 1 1 1 1 1 2
6 7 7 8 9 13 10 11 11 9 8 6 5 5 4 4 5 4 3 2 2 2 1 1 1 1 -0 0 1 1 2 2 2 2 2 1 1 1 1 0 1 1 1 1 1 1 1 1 2
7 9 13 14 14 14 9 11 10 8 6 6 6 5 5 5 5 4 4 4 2 3 2 1 1 2 0 1 1 1 1 2 2 2 2 2 2 2 1 1 1 1 1 1 1 1 1 1 2
8 9 13 18 17 14 10 13 10 6 5 5 5 5 5 5 5 4 4 3 3 3 1 1 1 2 1 1 1 1 1 1 1 1 2 2 2 1 1 1 1 1 1 1 1 1 1 1 1
10 11 8 13 12 15 13 10 8 6 6 5 5 5 6 5 4 4 4 3 3 2 1 1 1 1 1 1 1 1 1 1 2 1 1 1 1 1 1 1 1 1 1 1 1 1 6 5 1
8 7 12 12 20 19 14 13 12 10 8 7 6 6 6 4 5 5 4 4 3 1 1 1 1 2 1 1 1 1 1 1 1 1 1 1 1 1 1 1 3 4 4 2 4 5 6 4 2
10 10 10 11 13 18 19 14 8 8 7 7 6 5 5 5 5 5 4 4 3 2 2 1 1 1 1 1 1 1 1 1 1 1 1 1 1 1 1 2 2 2 3 1 1 3 6 5 3
8 10 10 17 17 14 15 16 7 7 6 6 6 6 5 4 4 4 4 3 3 2 2 2 1 1 1 1 1 1 1 1 2 2 1 1 1 1 1 3 4 3 2 2 1 3 3 3 3